This is the latest recevied weather packets stored in our database for station/object KO4ZGL-13. If no packets are shown the sender has not sent any weather packets the latest 10 day(s).
| Time | Temp. | Humidity | Pressure | Rain* | Wind** | Luminosity | Snow |
|---|---|---|---|---|---|---|---|
| 1777942204 | 18.89° C | 64% | 1017 hPa | 0 mm | - | 0 W/m² | - |
| 1777941901 | 18.89° C | 64% | 1017.3 hPa | 0 mm | - | 0 W/m² | - |
| 1777941597 | 18.89° C | 63% | 1017.2 hPa | 0 mm | - | 0 W/m² | - |
| 1777941294 | 19.44° C | 62% | 1017.1 hPa | 0 mm | - | 0 W/m² | - |
| 1777940990 | 19.44° C | 62% | 1017.2 hPa | 0 mm | - | 0 W/m² | - |
| 1777940687 | 19.44° C | 61% | 1017.1 hPa | 0 mm | - | 0 W/m² | - |
| 1777940385 | 20° C | 62% | 1017.1 hPa | 0 mm | - | 0 W/m² | - |
| 1777940083 | 20° C | 62% | 1017 hPa | 0 mm | - | 0 W/m² | - |
| 1777939779 | 20° C | 61% | 1017.1 hPa | 0 mm | - | 0 W/m² | - |
| 1777939478 | 20° C | 61% | 1017.1 hPa | 0 mm | - | 0 W/m² | - |
| 1777939174 | 20° C | 61% | 1016.9 hPa | 0 mm | - | 2 W/m² | - |
| 1777938871 | 20° C | 61% | 1016.9 hPa | 0 mm | - | 3 W/m² | - |
| 1777938567 | 20.56° C | 61% | 1017 hPa | 0 mm | - | 6 W/m² | - |
| 1777938265 | 20.56° C | 60% | 1017 hPa | 0 mm | - | 9 W/m² | - |
| 1777937961 | 20.56° C | 61% | 1016.9 hPa | 0 mm | - | 12 W/m² | - |
| 1777937657 | 21.11° C | 61% | 1017 hPa | 0 mm | - | 13 W/m² | - |
| 1777937354 | 21.11° C | 60% | 1016.8 hPa | 0 mm | - | 15 W/m² | - |
| 1777937051 | 21.11° C | 59% | 1016.8 hPa | 0 mm | - | 16 W/m² | - |
| 1777936748 | 21.67° C | 59% | 1016.9 hPa | 0 mm | - | 19 W/m² | - |
| 1777936444 | 21.67° C | 59% | 1016.8 hPa | 0 mm | - | 27 W/m² | - |
| 1777936141 | 21.67° C | 58% | 1016.8 hPa | 0 mm | - | 38 W/m² | - |
| 1777935838 | 21.67° C | 58% | 1016.6 hPa | 0 mm | - | 46 W/m² | - |
| 1777935537 | 21.67° C | 58% | 1016.8 hPa | 0 mm | - | 46 W/m² | - |
| 1777935233 | 21.67° C | 58% | 1016.6 hPa | 0 mm | - | 50 W/m² | - |
| 1777934931 | 22.22° C | 58% | 1016.8 hPa | 0 mm | - | 45 W/m² | - |
* Rain latest hour (hover to see other rain measurements)
** Current wind speed in m/s (hover to see current wind gust speed)